Volver al catálogo

COSMOS 886 DEB

ActivoLEO
NORAD 19244·DEBRIS·🇷🇺 Russia

Lanzado Dec 27, 1976 desde Baikonur Cosmodrome

Loading…

Próximos Pases (próximas 24 horas)

TLE

ActualizadoSource: Space-Track

Época: Sep 13, 2026, 23:23 UTC

1 19244U 76126CA  26256.97433826  .00000203  00000-0  57912-3 0  9997
2 19244  66.0471  95.7335 0718968 150.0104 358.6346 12.57687248652703

Sigue COSMOS 886 DEB en tiempo real con AllMySat

Download on the App Store